Sauk Centre, MN

6:11 PM CDT on October 13, 2019 (GMT -0500)
Sauk Centre

Weather History for KD39 - August, 2019

Change the Weather History Date:

Thursday, August 8, 2019

  Actual Average (WUND) Record (WUND)
Temperature  
Mean Temperature 62 °F -  
Max Temperature 73 °F - - (-1)
Min Temperature 50 °F - - (-1)
Degree Days  
Heating Degree Days 4    
Growing Degree Days 12 (Base 50)    
Moisture  
Dew Point 49 °F    
Average Humidity 66    
Maximum Humidity 94    
Minimum Humidity 38    
Precipitation  
Precipitation 0.00 in - - ()
Sea Level Pressure  
Sea Level Pressure 29.96 in    
Wind  
Wind Speed 5 mph (WNW)    
Max Wind Speed 17 mph    
Max Gust Speed 23 mph    
Visibility 10 miles    
Events      
Averages and records for this station are not official NWS values.
T = Trace of Precipitation, MM = Missing Value Source: NWS Daily Summary

Daily Weather History Graph

Daily Weather History Graph

Search for Another Location

Airport or City:

Astronomy

Aug. 08, 2019 Rise Set
Actual Time 6:11 AM CDT 8:38 PM CDT
Civil Twilight 5:37 AM CDT 9:12 PM CDT
Nautical Twilight 4:55 AM CDT 9:53 PM CDT
Astronomical Twilight 4:08 AM CDT 10:40 PM CDT
Moon 3:16 PM CDT (8/8) 12:35 AM CDT (8/8)
Length of Visible Light 15h 34m
Length of Day
14h 27m
First Quarter, 60% of the Moon is Illuminated
Aug 8
First Quarter
Aug 15
Full
Aug 23
Last Quarter
Aug 30
New
Sep 5
First Quarter

Hourly Weather History & Observations

Time (CDT) Temp. Dew Point Humidity Pressure Visibility Wind Dir Wind Speed Gust Speed Precip Events Conditions
12:18 AM 56.5 °F 51.4 °F 83% 29.93 in 10.0 mi WNW 3.5 mph - N/A   Clear
12:38 AM 54.5 °F 50.5 °F 86% 29.94 in 10.0 mi WNW 3.5 mph - N/A   Clear
12:57 AM 53.4 °F 50.4 °F 89% 29.94 in 10.0 mi Calm Calm - N/A   Clear
1:15 AM 52.9 °F 50.5 °F 92% 29.94 in 10.0 mi Calm Calm - N/A   Clear
1:35 AM 52.9 °F 50.5 °F 92% 29.94 in 10.0 mi WSW 3.5 mph - N/A   Clear
1:36 AM 52.9 °F 50.5 °F 92% 29.94 in 10.0 mi WSW 3.5 mph - N/A   Clear
1:55 AM 53.1 °F 50.5 °F 91% 29.94 in 10.0 mi Calm Calm - N/A   Clear
1:56 AM 53.1 °F 50.5 °F 91% 29.94 in 10.0 mi Calm Calm - N/A   Clear
2:19 AM 52.3 °F 50.2 °F 92% 29.94 in 10.0 mi Calm Calm - N/A   Clear
2:36 AM 52.0 °F 49.8 °F 92% 29.94 in 10.0 mi Calm Calm - N/A   Clear
2:56 AM 52.2 °F 50.0 °F 92% 29.94 in 10.0 mi Calm Calm - N/A   Clear
3:15 AM 51.8 °F 49.5 °F 92% 29.94 in 10.0 mi Calm Calm - N/A   Clear
3:16 AM 51.8 °F 49.5 °F 92% 29.94 in 10.0 mi Calm Calm - N/A   Clear
3:35 AM 52.2 °F 49.1 °F 89% 29.94 in 10.0 mi WNW 3.5 mph - N/A   Clear
3:39 AM 52.5 °F 49.3 °F 89% 29.94 in 10.0 mi West 3.5 mph - N/A   Clear
3:57 AM 51.8 °F 48.9 °F 90% 29.94 in 10.0 mi Calm Calm - N/A   Clear
4:15 AM 50.5 °F 48.7 °F 94% 29.94 in 10.0 mi WNW 4.6 mph - N/A   Clear
4:35 AM 51.4 °F 48.2 °F 89% 29.94 in 10.0 mi Calm Calm - N/A   Clear
4:36 AM 51.4 °F 48.2 °F 89% 29.94 in 10.0 mi Calm Calm - N/A   Clear
4:55 AM 51.3 °F 49.3 °F 93% 29.94 in 10.0 mi Calm Calm - N/A   Clear
4:56 AM 51.4 °F 49.3 °F 92% 29.94 in 10.0 mi Calm Calm - N/A   Clear
5:15 AM 51.3 °F 48.4 °F 90% 29.94 in 10.0 mi Calm Calm - N/A   Clear
5:19 AM 50.5 °F 48.4 °F 92% 29.94 in 10.0 mi Calm Calm - N/A   Clear
5:37 AM 50.0 °F 48.2 °F 94% 29.94 in 10.0 mi Calm Calm - N/A   Clear
5:56 AM 50.2 °F 48.6 °F 94% 29.94 in 10.0 mi WNW 3.5 mph - N/A   Clear
6:15 AM 50.4 °F 48.6 °F 94% 29.94 in 10.0 mi WNW 4.6 mph - N/A   Clear
6:36 AM 50.7 °F 49.1 °F 94% 29.95 in 10.0 mi Calm Calm - N/A   Clear
6:55 AM 51.6 °F 50.0 °F 94% 29.95 in 10.0 mi West 4.6 mph - N/A   Clear
6:56 AM 51.8 °F 50.0 °F 94% 29.96 in 10.0 mi West 3.5 mph - N/A   Clear
7:15 AM 52.9 °F 50.4 °F 91% 29.96 in 10.0 mi Calm Calm - N/A   Clear
7:16 AM 52.9 °F 50.4 °F 91% 29.96 in 10.0 mi Calm Calm - N/A   Clear
7:38 AM 54.5 °F 51.3 °F 89% 29.96 in 10.0 mi Calm Calm - N/A   Clear
7:57 AM 56.3 °F 52.0 °F 85% 29.97 in 10.0 mi Calm Calm - N/A   Clear
8:16 AM 58.1 °F 53.1 °F 83% 29.97 in 10.0 mi WNW 3.5 mph - N/A   Clear
8:35 AM 59.9 °F 53.8 °F 80% 29.97 in 10.0 mi West 4.6 mph - N/A   Clear
8:36 AM 60.1 °F 53.8 °F 80% 29.97 in 10.0 mi West 4.6 mph - N/A   Clear
8:55 AM 61.9 °F 52.9 °F 72% 29.97 in 10.0 mi WNW 6.9 mph - N/A   Clear
9:16 AM 64.4 °F 52.9 °F 66% 29.97 in 10.0 mi WNW 5.8 mph - N/A   Clear
9:36 AM 66.2 °F 52.0 °F 60% 29.97 in 10.0 mi West 5.8 mph - N/A   Clear
9:55 AM 67.1 °F 50.7 °F 56% 29.97 in 10.0 mi West 8.1 mph - N/A   Clear
9:56 AM 67.3 °F 50.4 °F 55% 29.97 in 10.0 mi West 8.1 mph - N/A   Clear
10:15 AM 68.7 °F 49.6 °F 51% 29.97 in 10.0 mi West 9.2 mph - N/A   Clear
10:20 AM 68.4 °F 48.9 °F 50% 29.97 in 10.0 mi WNW 10.4 mph - N/A   Clear
10:37 AM 69.4 °F 47.8 °F 46% 29.97 in 10.0 mi WNW 11.5 mph - N/A   Clear
10:56 AM 69.8 °F 47.3 °F 45% 29.97 in 10.0 mi WNW 8.1 mph 16.1 mph N/A   Clear
11:15 AM 70.5 °F 48.0 °F 45% 29.98 in 10.0 mi West 12.7 mph 17.3 mph N/A   Clear
11:16 AM 70.5 °F 47.8 °F 44% 29.98 in 10.0 mi WNW 11.5 mph 17.3 mph N/A   Clear
11:35 AM 70.9 °F 47.5 °F 43% 29.98 in 10.0 mi West 11.5 mph 16.1 mph N/A   Clear
11:36 AM 71.1 °F 47.5 °F 43% 29.98 in 10.0 mi West 15.0 mph 20.7 mph N/A   Clear
11:55 AM 71.8 °F 47.3 °F 42% 29.97 in 10.0 mi West 11.5 mph 20.7 mph N/A   Clear
11:59 AM 71.6 °F 47.1 °F 42% 29.97 in 10.0 mi West 15.0 mph 20.7 mph N/A   Clear
12:17 PM 72.5 °F 47.7 °F 41% 29.97 in 10.0 mi WNW 13.8 mph 17.3 mph N/A   Clear
12:35 PM 72.5 °F 46.9 °F 40% 29.98 in 10.0 mi West 13.8 mph 23.0 mph N/A   Scattered Clouds
12:56 PM 72.5 °F 46.4 °F 39% 29.97 in 10.0 mi WNW 15.0 mph 23.0 mph N/A   Scattered Clouds
1:15 PM 73.0 °F 47.7 °F 40% 29.98 in 10.0 mi West 16.1 mph 21.9 mph N/A   Scattered Clouds
1:35 PM 73.4 °F 48.2 °F 41% 29.97 in 10.0 mi WNW 15.0 mph 20.7 mph N/A   Scattered Clouds
1:39 PM 72.9 °F 48.6 °F 42% 29.97 in 10.0 mi NW 12.7 mph 19.6 mph N/A   Scattered Clouds
1:58 PM 72.5 °F 47.7 °F 41% 29.98 in 10.0 mi WNW 11.5 mph 18.4 mph N/A   Scattered Clouds
2:15 PM 72.5 °F 46.8 °F 40% 29.97 in 10.0 mi NW 16.1 mph 21.9 mph N/A   Scattered Clouds
2:35 PM 72.9 °F 48.0 °F 41% 29.97 in 10.0 mi WNW 13.8 mph 21.9 mph N/A   Clear
2:36 PM 73.0 °F 48.0 °F 41% 29.97 in 10.0 mi WNW 13.8 mph 21.9 mph N/A   Clear
2:55 PM 73.4 °F 48.0 °F 41% 29.97 in 10.0 mi West 13.8 mph 19.6 mph N/A   Scattered Clouds
2:56 PM 73.4 °F 48.0 °F 41% 29.97 in 10.0 mi WNW 12.7 mph 19.6 mph N/A   Scattered Clouds
3:15 PM 73.4 °F 48.2 °F 41% 29.97 in 10.0 mi WNW 17.3 mph 21.9 mph N/A   Scattered Clouds
3:19 PM 73.2 °F 47.8 °F 41% 29.97 in 10.0 mi WNW 12.7 mph 21.9 mph N/A   Clear
3:37 PM 72.9 °F 48.2 °F 42% 29.97 in 10.0 mi WNW 15.0 mph 23.0 mph N/A   Scattered Clouds
3:55 PM 72.3 °F 49.1 °F 44% 29.97 in 10.0 mi WNW 15.0 mph 20.7 mph N/A   Scattered Clouds
4:15 PM 72.7 °F 48.4 °F 42% 29.97 in 10.0 mi NW 12.7 mph 18.4 mph N/A   Scattered Clouds
4:16 PM 72.7 °F 48.4 °F 42% 29.97 in 10.0 mi NW 12.7 mph 18.4 mph N/A   Scattered Clouds
4:35 PM 73.4 °F 47.3 °F 39% 29.96 in 10.0 mi West 13.8 mph 23.0 mph N/A   Scattered Clouds
4:36 PM 73.2 °F 47.5 °F 40% 29.96 in 10.0 mi West 13.8 mph 23.0 mph N/A   Scattered Clouds
4:58 PM 72.9 °F 45.7 °F 38% 29.96 in 10.0 mi NW 13.8 mph - N/A   Clear
5:16 PM 72.7 °F 46.2 °F 39% 29.96 in 10.0 mi NW 13.8 mph - N/A   Clear
5:36 PM 72.1 °F 46.0 °F 39% 29.96 in 10.0 mi WNW 13.8 mph - N/A   Clear
5:55 PM 72.1 °F 46.8 °F 40% 29.96 in 10.0 mi WNW 13.8 mph 21.9 mph N/A   Clear
5:56 PM 72.0 °F 46.8 °F 41% 29.96 in 10.0 mi West 15.0 mph 23.0 mph N/A   Clear
6:15 PM 71.6 °F 46.8 °F 41% 29.95 in 10.0 mi NW 11.5 mph 18.4 mph N/A   Clear
6:19 PM 71.8 °F 46.8 °F 41% 29.95 in 10.0 mi WNW 11.5 mph 18.4 mph N/A   Clear
6:38 PM 71.2 °F 46.9 °F 42% 29.95 in 10.0 mi WNW 13.8 mph 18.4 mph N/A   Clear
6:56 PM 70.9 °F 46.0 °F 41% 29.95 in 10.0 mi NW 12.7 mph - N/A   Clear
7:15 PM 70.2 °F 46.2 °F 42% 29.96 in 10.0 mi WNW 10.4 mph - N/A   Clear
7:16 PM 70.2 °F 46.4 °F 43% 29.96 in 10.0 mi NW 9.2 mph - N/A   Clear
7:36 PM 69.4 °F 47.7 °F 46% 29.96 in 10.0 mi NW 10.4 mph - N/A   Clear
7:55 PM 68.5 °F 48.9 °F 49% 29.96 in 10.0 mi NNW 5.8 mph - N/A   Clear
7:59 PM 68.0 °F 48.9 °F 50% 29.96 in 10.0 mi NNW 6.9 mph - N/A   Clear
8:17 PM 66.9 °F 48.4 °F 51% 29.96 in 10.0 mi NNW 6.9 mph - N/A   Clear
8:35 PM 65.3 °F 49.1 °F 56% 29.97 in 10.0 mi NW 4.6 mph - N/A   Clear
8:55 PM 61.7 °F 50.2 °F 66% 29.97 in 10.0 mi Calm Calm - N/A   Clear
8:56 PM 61.3 °F 50.2 °F 67% 29.97 in 10.0 mi Calm Calm - N/A   Clear
9:15 PM 58.6 °F 51.8 °F 78% 29.98 in 10.0 mi West 3.5 mph - N/A   Clear
9:37 PM 57.4 °F 51.6 °F 81% 29.98 in 10.0 mi West 3.5 mph - N/A   Clear
9:56 PM 57.9 °F 51.3 °F 78% 29.99 in 10.0 mi Calm Calm - N/A   Clear
10:15 PM 55.9 °F 51.3 °F 84% 29.99 in 10.0 mi West 3.5 mph - N/A   Clear
10:16 PM 55.9 °F 51.3 °F 84% 29.99 in 10.0 mi WSW 3.5 mph - N/A   Clear
10:35 PM 55.8 °F 51.3 °F 85% 29.99 in 10.0 mi West 3.5 mph - N/A   Clear
10:36 PM 55.8 °F 51.3 °F 85% 29.99 in 10.0 mi West 3.5 mph - N/A   Clear
10:58 PM 54.5 °F 51.3 °F 89% 30.00 in 10.0 mi Calm Calm - N/A   Clear
11:16 PM 53.8 °F 50.4 °F 88% 30.00 in 10.0 mi Calm Calm - N/A   Clear
11:36 PM 54.1 °F 50.4 °F 87% 30.00 in 10.0 mi Calm Calm - N/A   Clear
11:55 PM 54.5 °F 50.0 °F 85% 30.00 in 10.0 mi Calm Calm - N/A   Clear
11:56 PM 54.5 °F 50.0 °F 85% 30.00 in 10.0 mi Calm Calm - N/A   Clear